• Join FlightAware (Why Join?)
  • Login
  • US Flag 
01:46PM EDT


 

Airport Tracker/Info


-or-


 

Live Flight TrackerFlight Track Log ✈ N820V ✈ 06-Oct-2013 ✈ KGRB - C29

Flight Track Log - Related Links

Times and Time Zones

All times are in EDT time to prevent confusion due to time zone crossing. See the N820V flight status page for this flight to view local times or setup timezone preferences in your user account.

Time Position Orientation Groundspeed Altitude Reporting Facility
EDT Latitude Longitude Course Direction KTS MPH feet Rate Location/Type
04:34PM 44.4308 -88.1794 217° Southwest 120 138 2,700  Level Chicago Center
04:35PM 44.4058 -88.2036 215° Southwest 112 129 3,400 600 Climbing Chicago Center
04:36PM 44.3808 -88.2275 214° Southwest 109 125 4,000 240 Climbing Chicago Center
04:37PM 44.3519 -88.2594 218° Southwest 126 145 4,000  Level Chicago Center
04:38PM 44.2907 -88.3257 216° Southwest  Level FlightAware Approximate
04:38PM 44.3203 -88.2953 219° Southwest 144 166 4,000  Level Chicago Center
04:39PM 44.2588 -88.3591 217° Southwest  Level Estimated
04:39PM 44.2825 -88.3372 218° Southwest 145 167 4,000  Level Chicago Center
04:40PM 44.2514 -88.3728 219° Southwest 145 167 4,000  Level Chicago Center
04:41PM 44.2186 -88.4094 219° Southwest 148 170 4,000  Level Chicago Center
04:42PM 44.1864 -88.4469 220° Southwest 150 173 4,000  Level Chicago Center
04:43PM 44.1561 -88.4847 222° Southwest 148 170 4,000  Level Chicago Center
04:44PM 44.1250 -88.5208 220° Southwest 148 170 4,000  Level Chicago Center
04:45PM 44.0858 -88.5636 218° Southwest 148 170 4,000  Level Chicago Center
04:46PM 44.0519 -88.5958 214° Southwest 149 171 4,000  Level Chicago Center
04:47PM 44.0169 -88.6278 213° Southwest 150 173 4,000  Level Chicago Center
04:48PM 43.9808 -88.6581 211° Southwest 151 174 4,000  Level Chicago Center
04:49PM 43.9433 -88.6869 209° Southwest 153 176 4,000  Level Chicago Center
04:50PM 43.8992 -88.7211 209° Southwest 153 176 4,000  Level Chicago Center
04:51PM 43.8622 -88.7519 211° Southwest 154 177 4,000  Level Chicago Center
04:52PM 43.8264 -88.7833 212° Southwest 154 177 4,000  Level Chicago Center
04:53PM 43.7908 -88.8178 215° Southwest 155 178 4,000  Level Chicago Center
04:54PM 43.7564 -88.8575 220° Southwest 158 182 4,000  Level Chicago Center
04:55PM 43.7225 -88.8964 220° Southwest 159 183 4,000  Level Chicago Center
04:56PM 43.6833 -88.9425 220° Southwest 157 181 4,000  Level Chicago Center
04:58PM 43.6506 -88.9825 221° Southwest 157 181 4,000  Level Chicago Center
04:59PM 43.6172 -89.0211 220° Southwest 157 181 4,000  Level Chicago Center
05:00PM 43.5842 -89.0622 222° Southwest 159 183 4,000  Level Chicago Center
05:01PM 43.5519 -89.1017 222° Southwest 158 182 4,000  Level Chicago Center
05:02PM 43.5117 -89.1450 218° Southwest 155 178 4,000  Level Chicago Center
05:03PM 43.4747 -89.1747 210° Southwest 154 177 4,000  Level Chicago Center
05:04PM 43.4383 -89.2078 213° Southwest 156 180 4,100  Climbing Chicago Center
05:05PM 43.4011 -89.2392 211° Southwest 156 180 4,100 -60 Level Chicago Center
05:06PM 43.3628 -89.2697 210° Southwest 158 182 4,000 -60 Descending Chicago Center
05:07PM 43.3186 -89.3075 212° Southwest 157 181 4,000  Level Chicago Center
05:08PM 43.2822 -89.3367 210° Southwest 155 178 4,000 -240 Level Chicago Center
05:09PM 43.2447 -89.3686 212° Southwest 156 180 3,600 -480 Descending Chicago Center
05:10PM 43.2067 -89.3997 211° Southwest 158 182 3,100 -540 Descending Chicago Center
05:12PM 43.1615 -89.4616 225° Southwest  Level FlightAware Approximate
05:19PM 43.1000 -89.5167 200° South  Level FlightAware Approximate
05:20PM 43.1143 -89.5315 200° South  Level Estimated